CW5316 Weather Reports


Display with metric or nautical units.
time (UTC)temp
F
wind
direction
speed
MPH
gust
MPH
rain 1hr
in
rain 24hr
in
rain mn
in
humidity
%
barometer
mb
20260508211025 53 333 1.0 5.0 0.00 0.00 0.00 72 1021.8
20260508210522 53 272 1.0 5.0 0.00 0.00 0.00 75 1021.8
20260508210039 52 0 1.0 7.0 0.00 0.00 0.00 73 1021.7
20260508205521 52 0 0.0 7.0 0.00 0.00 0.00 76 1021.7
20260508205020 52 108 2.0 7.0 0.00 0.00 0.00 77 1021.8
20260508204536 51 97 2.0 6.0 0.00 0.00 0.00 79 1021.8
20260508204023 50 130 2.0 6.0 0.00 0.00 0.00 79 1021.8
20260508203519 50 100 2.0 6.0 0.00 0.00 0.00 80 1021.7
20260508203042 50 0 1.0 6.0 0.00 0.00 0.00 80 1021.7
20260508202519 50 118 1.0 6.0 0.00 0.00 0.00 81 1021.7
20260508202021 50 265 1.0 7.0 0.00 0.00 0.00 80 1021.6
20260508201541 50 0 1.0 7.0 0.00 0.00 0.00 81 1021.5
20260508201021 50 180 1.0 7.0 0.00 0.00 0.00 81 1021.4
20260508200521 50 0 1.0 6.0 0.00 0.00 0.00 81 1021.5
20260508200049 50 202 1.0 6.0 0.00 0.00 0.00 80 1021.5
20260508195523 49 0 1.0 6.0 0.00 0.00 0.00 81 1021.6
20260508195019 49 0 1.0 5.0 0.00 0.00 0.00 82 1021.5
20260508194538 49 234 1.0 5.0 0.00 0.00 0.00 81 1021.5
20260508194021 49 0 0.0 7.0 0.00 0.00 0.00 82 1021.5
20260508193519 49 196 1.0 7.0 0.00 0.00 0.00 82 1021.4
20260508193102 49 240 1.0 6.0 0.00 0.00 0.00 82 1021.3
20260508192522 48 115 0.0 6.0 0.00 0.00 0.00 82 1021.4
20260508192023 48 0 1.0 6.0 0.00 0.00 0.00 82 1021.4
20260508191542 48 0 1.0 6.0 0.00 0.00 0.00 82 1021.4
20260508191022 48 0 1.0 7.0 0.00 0.00 0.00 83 1021.3
20260508190523 48 0 2.0 8.0 0.00 0.00 0.00 83 1021.4
20260508190041 48 106 3.0 8.0 0.00 0.00 0.00 83 1021.4
20260508185519 48 185 3.0 7.0 0.00 0.00 0.00 82 1021.3
20260508185020 48 193 2.0 7.0 0.00 0.00 0.00 82 1021.3
20260508184537 48 182 2.0 6.0 0.00 0.00 0.00 83 1021.2
20260508184019 48 133 0.0 7.0 0.00 0.00 0.00 83 1021.0
20260508183520 48 186 0.0 7.0 0.00 0.00 0.00 83 1020.9
20260508183039 48 269 1.0 11.0 0.00 0.00 0.00 82 1021.0
20260508182521 48 64 2.0 11.0 0.00 0.00 0.00 82 1021.0
20260508182020 48 0 1.0 5.0 0.00 0.00 0.00 81 1020.9
20260508181543 49 119 1.0 5.0 0.00 0.00 0.00 81 1021.0
20260508181019 49 232 1.0 6.0 0.00 0.00 0.00 79 1021.1
20260508180519 49 220 2.0 8.0 0.00 0.00 0.00 81 1020.9
20260508180048 49 0 2.0 10.0 0.00 0.00 0.00 81 1020.6
20260508175520 50 113 3.0 10.0 0.00 0.00 0.00 80 1020.4
20260508175023 51 219 3.0 10.0 0.00 0.00 0.00 79 1020.2
20260508174556 51 112 1.0 9.0 0.00 0.00 0.00 78 1020.0
20260508174024 51 186 2.0 9.0 0.00 0.00 0.00 79 1019.9
20260508173520 51 109 3.0 9.0 0.00 0.00 0.00 79 1019.8
20260508173038 51 101 3.0 8.0 0.00 0.00 0.00 79 1019.8
20260508172520 51 117 3.0 7.0 0.00 0.00 0.00 80 1019.5
20260508172022 50 98 3.0 7.0 0.00 0.00 0.00 81 1019.4
20260508171600 50 281 2.0 6.0 0.00 0.00 0.00 82 1019.4
20260508171020 49 113 1.0 7.0 0.00 0.00 0.00 83 1019.6
20260508170545 49 135 2.0 7.0 0.00 0.00 0.00 82 1019.4
20260508170040 49 0 0.0 7.0 0.00 0.00 0.00 82 1019.5
20260508165520 49 111 2.0 8.0 0.00 0.00 0.00 83 1019.5
20260508165020 48 101 4.0 8.0 0.00 0.00 0.00 82 1019.4
20260508164538 49 88 4.0 7.0 0.00 0.00 0.00 82 1019.3
20260508164020 49 80 2.0 6.0 0.00 0.00 0.00 82 1019.3
20260508163521 49 101 2.0 4.0 0.00 0.00 0.00 83 1019.4
20260508163039 49 109 1.0 3.0 0.00 0.00 0.00 83 1019.3
20260508162520 49 0 0.0 4.0 0.00 0.00 0.00 83 1019.3
20260508162019 48 112 1.0 6.0 0.00 0.00 0.00 83 1019.5
20260508161544 48 0 1.0 6.0 0.00 0.00 0.00 83 1019.5
20260508161021 47 215 3.0 11.0 0.00 0.00 0.00 84 1019.6
20260508160521 47 230 1.0 11.0 0.00 0.00 0.00 84 1019.9
20260508160039 47 254 1.0 6.0 0.00 0.00 0.00 84 1020.1
20260508155521 47 192 2.0 7.0 0.00 0.00 0.00 85 1020.0
20260508155019 47 308 1.0 7.0 0.00 0.00 0.00 85 1020.0
20260508154544 47 101 2.0 8.0 0.00 0.00 0.00 85 1020.0
20260508154022 47 97 3.0 8.0 0.00 0.00 0.00 85 1020.0
20260508153521 46 158 2.0 8.0 0.00 0.00 0.00 86 1020.0
20260508153043 47 126 2.0 6.0 0.00 0.00 0.00 86 1019.9
20260508152520 47 0 2.0 10.0 0.00 0.00 0.00 86 1019.8
20260508152020 47 94 3.0 10.0 0.00 0.00 0.00 87 1019.8
20260508151544 47 109 4.0 10.0 0.00 0.00 0.00 88 1019.7
20260508151021 47 76 4.0 10.0 0.00 0.00 0.00 87 1019.7
20260508150520 47 223 2.0 10.0 0.00 0.00 0.00 87 1019.6
20260508150039 47 165 3.0 10.0 0.00 0.00 0.00 86 1019.5
20260508145520 48 104 3.0 11.0 0.00 0.00 0.00 86 1019.5
20260508145021 48 105 4.0 13.0 0.00 0.00 0.00 85 1019.5
20260508144538 48 123 3.0 13.0 0.00 0.00 0.00 85 1019.4
20260508144020 49 217 2.0 8.0 0.00 0.00 0.00 86 1019.1
20260508143520 49 154 1.0 8.0 0.00 0.00 0.00 86 1018.8
20260508143038 49 209 2.0 8.0 0.00 0.00 0.00 86 1018.6
20260508142523 49 239 1.0 7.0 0.00 0.00 0.00 86 1018.5
20260508142020 49 136 2.0 7.0 0.00 0.00 0.00 87 1018.5
20260508141540 48 227 1.0 4.0 0.00 0.00 0.00 89 1018.3
20260508141019 48 180 1.0 4.0 0.00 0.00 0.00 89 1018.3
20260508140520 47 0 0.0 1.0 0.00 0.00 0.00 91 1018.2
20260508140110 47 0 0.0 2.0 0.00 0.00 0.00 91 1018.1
20260508135522 47 0 0.0 2.0 0.00 0.00 0.00 91 1018.0
20260508135019 47 248 0.0 2.0 0.00 0.00 0.00 91 1018.0
20260508134538 46 0 0.0 1.0 0.00 0.00 0.00 92 1017.9
20260508134019 46 0 0.0 0.0 0.00 0.00 0.00 92 1018.0
20260508133521 46 0 0.0 0.0 0.00 0.00 0.00 92 1018.0
20260508133057 46 0 0.0 2.0 0.00 0.00 0.00 91 1017.9
20260508132521 46 0 0.0 2.0 0.00 0.00 0.00 91 1017.7
20260508132025 46 0 0.0 7.0 0.00 0.00 0.00 91 1017.7
20260508131541 46 0 1.0 7.0 0.00 0.00 0.00 91 1017.5
20260508131022 46 142 2.0 7.0 0.00 0.00 0.00 91 1017.5
20260508130522 46 100 1.0 7.0 0.00 0.00 0.00 92 1017.4
20260508130042 45 107 2.0 7.0 0.00 0.00 0.00 92 1017.3
20260508125520 45 117 2.0 9.0 0.00 0.00 0.00 92 1017.4
20260508125023 45 92 2.0 9.0 0.00 0.00 0.00 92 1017.3
20260508124538 45 116 3.0 9.0 0.00 0.00 0.00 92 1017.1
20260508124019 45 119 3.0 9.0 0.00 0.00 0.00 92 1017.2
20260508123519 45 128 4.0 8.0 0.00 0.00 0.00 92 1017.1
20260508123039 45 108 2.0 7.0 0.00 0.00 0.00 92 1017.2
20260508122519 45 104 3.0 9.0 0.00 0.00 0.00 92 1017.2
20260508122021 45 105 4.0 9.0 0.00 0.00 0.00 92 1017.3
20260508121536 45 111 4.0 8.0 0.00 0.00 0.00 92 1017.2
20260508121020 45 102 2.0 9.0 0.00 0.00 0.00 92 1017.2
20260508120521 45 134 4.0 9.0 0.00 0.00 0.00 93 1017.3
20260508120051 45 115 6.0 9.0 0.00 0.00 0.00 92 1017.3
20260508115522 45 111 3.0 8.0 0.00 0.00 0.00 93 1017.2
20260508115019 45 113 2.0 6.0 0.00 0.00 0.00 93 1017.3
20260508114539 45 120 0.0 3.0 0.00 0.00 0.00 92 1017.3
20260508114020 45 115 0.0 3.0 0.00 0.00 0.00 93 1017.3
20260508113520 45 0 0.0 0.0 0.00 0.00 0.00 93 1017.3
20260508113046 45 0 0.0 0.0 0.00 0.00 0.00 93 1017.3
20260508112520 45 0 0.0 0.0 0.00 0.00 0.00 93 1017.3
20260508112021 45 0 0.0 0.0 0.00 0.00 0.00 93 1017.2
20260508111534 45 0 0.0 0.0 0.00 0.00 0.00 93 1017.3
20260508111020 45 0 0.0 0.0 0.00 0.00 0.00 93 1017.2
20260508110521 45 0 0.0 0.0 0.00 0.00 0.00 93 1017.3
20260508110041 45 0 0.0 0.0 0.00 0.00 0.00 93 1017.1
20260508105520 45 0 0.0 0.0 0.00 0.00 0.00 92 1017.1
20260508105020 45 0 0.0 0.0 0.00 0.00 0.00 92 1017.1
20260508104538 45 0 0.0 0.0 0.00 0.00 0.00 92 1017.0
20260508104019 45 0 0.0 0.0 0.00 0.00 0.00 92 1017.0
20260508103520 45 0 0.0 0.0 0.00 0.00 0.00 92 1016.9
20260508103038 45 0 0.0 0.0 0.00 0.00 0.00 92 1016.8
20260508102519 45 0 0.0 0.0 0.00 0.00 0.00 92 1016.8
20260508102020 45 0 0.0 0.0 0.00 0.00 0.00 91 1016.8
20260508101546 45 0 0.0 0.0 0.00 0.00 0.00 91 1016.9
20260508101022 46 0 0.0 0.0 0.00 0.00 0.00 91 1016.8
20260508100521 46 0 0.0 0.0 0.00 0.00 0.00 91 1016.8
20260508100040 46 0 0.0 0.0 0.00 0.00 0.00 90 1016.9
20260508095520 46 0 0.0 0.0 0.00 0.00 0.00 89 1016.8
20260508095020 47 0 0.0 0.0 0.00 0.00 0.00 89 1016.8
20260508094539 47 0 0.0 2.0 0.00 0.00 0.00 90 1016.8
20260508094019 47 0 0.0 3.0 0.00 0.00 0.00 89 1016.8
20260508093520 47 183 0.0 3.0 0.00 0.00 0.00 89 1016.8
20260508093039 47 0 0.0 3.0 0.00 0.00 0.00 90 1016.9
20260508092521 47 0 0.0 2.0 0.00 0.00 0.00 89 1016.8
20260508092021 47 192 0.0 3.0 0.00 0.00 0.00 89 1016.8
20260508091606 47 0 0.0 4.0 0.00 0.00 0.00 88 1016.8
20260508091021 47 0 0.0 5.0 0.00 0.00 0.00 88 1016.8
20260508090520 47 112 1.0 5.0 0.00 0.00 0.00 88 1016.8
20260508090039 47 180 0.0 4.0 0.00 0.00 0.00 88 1016.9
20260508085521 48 0 1.0 8.0 0.00 0.01 0.00 87 1017.0
20260508085021 48 0 1.0 8.0 0.00 0.01 0.00 87 1016.9
20260508084538 48 109 1.0 8.0 0.00 0.01 0.00 88 1016.9
20260508084026 48 161 0.0 4.0 0.00 0.01 0.00 88 1016.9
20260508083518 48 244 0.0 3.0 0.00 0.01 0.00 88 1017.0
20260508083040 47 240 0.0 0.0 0.00 0.01 0.00 90 1016.9
20260508082519 47 0 0.0 0.0 0.00 0.01 0.00 90 1016.8
20260508082021 47 0 0.0 0.0 0.00 0.01 0.00 90 1016.8
20260508081546 47 0 0.0 0.0 0.00 0.01 0.00 90 1016.8
20260508081021 47 0 0.0 0.0 0.00 0.01 0.00 90 1016.9
20260508080521 47 0 0.0 0.0 0.00 0.01 0.00 90 1016.9
20260508080042 47 0 0.0 0.0 0.00 0.01 0.00 90 1017.0
20260508075520 47 0 0.0 0.0 0.00 0.01 0.00 89 1017.0
20260508075025 48 0 0.0 1.0 0.00 0.01 0.00 89 1017.0
20260508074540 48 0 0.0 2.0 0.00 0.01 0.00 88 1017.0
20260508074018 48 0 0.0 3.0 0.00 0.01 0.00 88 1017.1
20260508073520 49 0 0.0 3.0 0.00 0.01 0.00 87 1017.0
20260508073039 48 132 0.0 3.0 0.00 0.01 0.00 88 1017.0
20260508072522 48 165 0.0 3.0 0.00 0.01 0.00 88 1017.2
20260508072021 48 0 0.0 3.0 0.00 0.01 0.00 88 1017.1
20260508071535 48 123 0.0 3.0 0.00 0.01 0.00 89 1017.2
20260508071025 48 0 0.0 3.0 0.00 0.01 0.00 88 1017.1
20260508070525 48 0 0.0 3.0 0.00 0.01 0.00 89 1017.2
20260508070035 48 0 0.0 2.0 0.00 0.01 0.00 90 1017.3
20260508065521 48 0 0.0 0.0 0.00 0.03 0.01 90 1017.2
20260508065019 48 0 0.0 0.0 0.00 0.03 0.01 89 1017.2
20260508064541 48 0 0.0 4.0 0.00 0.03 0.01 89 1017.2
20260508064020 48 0 0.0 4.0 0.00 0.03 0.01 89 1017.2
20260508063521 48 237 1.0 4.0 0.00 0.03 0.01 90 1017.2
20260508063105 48 0 0.0 2.0 0.00 0.03 0.01 89 1017.2
20260508062523 48 0 0.0 2.0 0.00 0.03 0.01 90 1017.3
20260508062021 47 0 0.0 0.0 0.00 0.03 0.01 90 1017.3
20260508061534 48 0 0.0 1.0 0.00 0.03 0.01 90 1017.4
20260508061022 48 0 0.0 2.0 0.00 0.03 0.01 91 1017.3
20260508060525 47 0 0.0 2.0 0.00 0.03 0.01 91 1017.3
20260508060041 47 0 0.0 0.0 0.00 0.03 0.01 92 1017.3
20260508055521 47 0 0.0 0.0 0.00 0.04 0.01 92 1017.4
20260508055022 47 0 0.0 1.0 0.00 0.04 0.01 92 1017.2
20260508054542 47 0 0.0 1.0 0.00 0.04 0.01 91 1017.4
20260508054019 47 0 0.0 3.0 0.00 0.04 0.01 91 1017.3
20260508053520 47 0 0.0 3.0 0.00 0.04 0.01 91 1017.4
20260508053051 47 240 0.0 2.0 0.00 0.04 0.01 91 1017.4
20260508052521 47 143 0.0 1.0 0.00 0.04 0.01 91 1017.4
20260508052022 47 0 0.0 0.0 0.00 0.04 0.01 91 1017.5
20260508051603 48 0 0.0 0.0 0.00 0.04 0.01 92 1017.4
20260508051021 47 0 0.0 0.0 0.00 0.04 0.01 92 1017.4
20260508050522 47 0 0.0 0.0 0.00 0.04 0.01 92 1017.4
20260508050034 47 0 0.0 0.0 0.00 0.04 0.01 92 1017.4
20260508045521 47 0 0.0 0.0 0.00 0.04 0.01 92 1017.4
20260508045025 47 0 0.0 0.0 0.00 0.04 0.01 92 1017.5
20260508044540 47 0 0.0 0.0 0.00 0.04 0.01 92 1017.6
20260508044022 47 0 0.0 0.0 0.00 0.04 0.01 92 1017.6
20260508043521 47 0 0.0 0.0 0.00 0.04 0.01 92 1017.6
20260508043038 48 0 0.0 0.0 0.00 0.04 0.01 91 1017.5
20260508042521 48 0 0.0 0.0 0.00 0.04 0.01 91 1017.6
20260508042024 48 0 0.0 0.0 0.00 0.04 0.01 91 1017.6
20260508041536 48 0 0.0 0.0 0.00 0.04 0.01 90 1017.5
20260508041021 48 0 0.0 0.0 0.00 0.04 0.01 90 1017.5
20260508040522 48 0 0.0 0.0 0.00 0.04 0.01 90 1017.5
20260508040034 49 0 0.0 0.0 0.00 0.04 0.01 90 1017.3
20260508035520 49 0 0.0 0.0 0.00 0.04 0.01 89 1017.3
20260508035021 49 0 0.0 0.0 0.00 0.04 0.01 89 1017.3
20260508034540 49 0 0.0 0.0 0.00 0.04 0.01 89 1017.3
20260508034020 50 0 0.0 0.0 0.00 0.04 0.01 88 1017.2
20260508033520 50 0 0.0 0.0 0.00 0.04 0.01 88 1017.1
20260508033047 50 0 0.0 0.0 0.00 0.04 0.01 88 1017.1
20260508032520 50 0 0.0 0.0 0.00 0.04 0.01 88 1017.1
20260508032020 51 0 0.0 0.0 0.00 0.04 0.01 87 1017.2
20260508031539 51 0 0.0 0.0 0.00 0.04 0.01 87 1017.1
20260508031020 52 0 0.0 1.0 0.00 0.04 0.01 86 1017.0
20260508030521 52 0 0.0 1.0 0.00 0.04 0.01 86 1017.0
20260508030047 52 0 0.0 1.0 0.00 0.04 0.01 85 1017.0
20260508025520 53 0 0.0 0.0 0.00 0.04 0.01 85 1016.9
20260508025020 53 0 0.0 0.0 0.00 0.04 0.01 85 1017.1
20260508024542 53 0 0.0 0.0 0.00 0.04 0.01 84 1017.0
20260508024021 53 0 0.0 0.0 0.00 0.04 0.01 83 1017.2
20260508023521 54 0 0.0 0.0 0.00 0.04 0.01 83 1017.2
20260508023040 54 0 0.0 0.0 0.00 0.04 0.01 82 1017.1
20260508022520 54 0 0.0 0.0 0.00 0.04 0.01 81 1017.1
20260508022020 55 0 0.0 0.0 0.00 0.04 0.01 81 1017.1
20260508021545 55 0 0.0 0.0 0.00 0.04 0.01 82 1017.2
20260508021027 55 0 0.0 0.0 0.00 0.04 0.01 81 1017.4
20260508020519 56 0 0.0 0.0 0.00 0.04 0.01 80 1017.3
20260508020036 56 0 0.0 0.0 0.00 0.04 0.01 81 1017.3
20260508015519 56 0 0.0 1.0 0.00 0.04 0.01 79 1017.3
20260508015020 57 0 0.0 1.0 0.00 0.04 0.01 79 1017.4
20260508014535 57 0 0.0 2.0 0.00 0.04 0.01 78 1017.4
20260508014021 57 0 0.0 2.0 0.00 0.04 0.01 76 1017.4
20260508013521 57 0 0.0 2.0 0.00 0.04 0.01 76 1017.4
20260508013043 58 0 0.0 0.0 0.00 0.04 0.01 74 1017.5
20260508012521 57 0 0.0 0.0 0.00 0.04 0.01 73 1017.6
20260508012020 57 0 0.0 1.0 0.00 0.04 0.01 73 1017.7
20260508011547 58 0 0.0 2.0 0.00 0.04 0.01 72 1017.8
20260508011021 58 0 0.0 2.0 0.00 0.04 0.01 72 1017.8
20260508010524 58 238 0.0 2.0 0.00 0.04 0.01 72 1017.9
20260508010056 58 0 0.0 1.0 0.00 0.04 0.01 70 1017.8
20260508005523 58 0 0.0 2.0 0.00 0.04 0.01 71 1017.9
20260508005021 58 0 0.0 4.0 0.00 0.04 0.01 71 1018.0
20260508004538 57 0 0.0 4.0 0.00 0.04 0.01 68 1018.1
20260508004019 58 84 0.0 3.0 0.00 0.04 0.01 69 1018.1
20260508003520 58 0 0.0 3.0 0.00 0.04 0.01 71 1018.0
20260508003035 58 248 0.0 3.0 0.00 0.04 0.01 70 1018.1
20260508002522 58 0 0.0 1.0 0.00 0.04 0.01 71 1018.1
20260508002021 58 0 0.0 2.0 0.00 0.04 0.01 72 1018.0
20260508001545 58 0 0.0 2.0 0.00 0.04 0.01 71 1018.0
20260508001021 58 0 0.0 2.0 0.00 0.04 0.01 71 1017.9
20260508000521 58 0 0.0 4.0 0.00 0.04 0.01 74 1017.9
20260508000045 57 0 0.0 4.0 0.00 0.04 0.01 73 1017.9
20260507235524 58 119 1.0 4.0 0.00 0.04 0.01 71 1018.0
20260507235024 57 0 0.0 2.0 0.00 0.04 0.01 73 1017.9
20260507234539 57 0 0.0 2.0 0.00 0.04 0.01 71 1018.0
20260507234021 58 81 0.0 3.0 0.00 0.04 0.01 73 1017.9
20260507233520 58 0 1.0 3.0 0.00 0.04 0.01 70 1017.9
20260507233041 58 0 0.0 3.0 0.00 0.04 0.01 71 1018.0
20260507232523 58 0 0.0 2.0 0.00 0.04 0.01 71 1018.1
20260507232021 58 0 0.0 3.0 0.00 0.04 0.01 70 1018.1
20260507231534 57 0 0.0 4.0 0.00 0.04 0.01 72 1018.1
20260507231020 58 0 0.0 4.0 0.00 0.04 0.01 72 1018.2
20260507230520 58 0 0.0 3.0 0.00 0.04 0.01 72 1018.2
20260507230106 57 256 0.0 3.0 0.00 0.04 0.01 73 1018.3
20260507225521 57 0 0.0 3.0 0.00 0.04 0.01 72 1018.3
20260507225021 57 0 0.0 3.0 0.00 0.04 0.01 74 1018.3
20260507224542 57 241 0.0 2.0 0.00 0.04 0.01 74 1018.3
20260507224025 56 0 0.0 3.0 0.00 0.04 0.01 73 1018.4
20260507223527 58 0 1.0 3.0 0.00 0.04 0.01 73 1018.5
20260507223119 58 0 0.0 3.0 0.00 0.04 0.01 77 1018.4
20260507222521 57 187 0.0 3.0 0.00 0.04 0.01 76 1018.4
20260507222018 56 0 0.0 3.0 0.00 0.04 0.01 76 1018.5
20260507221538 56 0 0.0 3.0 0.00 0.04 0.01 75 1018.5
20260507221022 56 106 0.0 3.0 0.00 0.04 0.01 74 1018.6
20260507220521 56 91 1.0 3.0 0.00 0.04 0.01 75 1018.6
20260507220038 56 216 0.0 1.0 0.00 0.04 0.01 76 1018.7
20260507215520 56 0 0.0 2.0 0.00 0.04 0.01 74 1018.7
20260507215020 57 0 0.0 3.0 0.00 0.04 0.01 75 1018.8
20260507214539 57 0 0.0 3.0 0.00 0.04 0.01 78 1018.8
20260507214020 55 0 0.0 3.0 0.00 0.04 0.01 78 1018.8
20260507213521 55 0 0.0 3.0 0.00 0.04 0.01 78 1019.0
20260507213046 56 96 0.0 4.0 0.00 0.04 0.01 76 1019.0
20260507212521 58 250 2.0 4.0 0.00 0.04 0.01 74 1019.2
20260507212021 58 254 1.0 6.0 0.00 0.04 0.01 77 1019.1
20260507211539 57 260 1.0 6.0 0.00 0.04 0.01 76 1019.2